Погода в Таразе

Погода в Таразе : погода сейчас, прогноз погоды и архив. Всё, что Вы хотите узнать о погоде в Таразе!

Поиск расширенной информации на нашем сайте:

Другие новости

Новости СМИ2

Главная страница сайта

Новости сайта

03.07.2017

Напоминаем, что на нашем специализированном сайте Метеоцентр.Азия вы можете получить высокодетализированные автоматические прогнозы погоды по пунктам России, СНГ и мира в авиационном формате (включающие направление и скорость ветра, видимость, явления погоды, количество и форму облачности, нижнюю и верхнюю границу облачности).

Рекомендуем: Тариф защита ddos.

Погода в Таразе - сегодня

Время (UTC), дата Ветер
(°,м/с) 
Видим.   Явления Облачность Т
(°С)
Тd
(°С)
f(%) Тe
(°С)
Pmin
(гПа)
dP
(гПа)
Po
(мм)
O2
(г/м3)
Тmin Tmax R s Состояние
почвы
00 17.08.17 170 (Ю) 10 км    4/4 1000 м 
[Sc diur, vesp]
+13.3 +8.2 71 +15  1011.8  0.9  703  268           
03 17.08.17 210 (ЮЗ) 20000 м    4/4 1000 м 
[Sc diur, vesp]
+18.3 +6.7 47 +20  1012.1  1.5  704  265           
06 17.08.17 300 (СЗ) 20000 м    3/3 1000 м 
[Sc diur, vesp]
+28 +7.6 28 +28  1010.4  -0.5  704  256  +12.1         
09 17.08.17 030 (СВ) 20000 м    6/4 1000 м средняя 
[Sc diur, vesp|Ac lent]
+26.8 +7.8 30 +27  1008.4  -0.9  703  257           
12 17.08.17 050 (СВ) 20000 м    9/8 600 м кучево-дожд., средняя 
[Cb cap|Ac lent]
+26 +5.3 26 +26  1011.6  2.7  705  258           
15 17.08.17 080 (В) 20000 м  в посл. час гроза{ливн. осадки}  3/3 1000 м 
[Sc diur, vesp]
+18.7 +8 50 +19  1016.8  3.2  707  265    +28.1  0.4     
18 17.08.17 130 (ЮВ) 10 км  {гроза, ливн. осадки}  ясно 
+16.8 +7.4 54 +17  1017.4  0.1  707  267    +28.1  0.4     
21 17.08.17 210 (ЮЗ) 10 км    ясно 
+13.4 +9.3 76 +16  1017.5  -0.7  707  270           
00 18.08.17 210 (ЮЗ) 10 км    ясно 
+12.2 +8.1 76 +13  1017.9  707  271           
03 18.08.17 тихо ()   20000 м    ясно 
+17.2 +9.2 59 +18  1017.1  0.5  707  266           
06 18.08.17 040 (СВ) 20000 м    3/0 верхняя 
[Ci fib]
+23.5 +8.2 38 +24  1014.7  -0.7  707  261  +10.5         
09 18.08.17 020 (С) 7{12}  20000 м    3/0 верхняя 
[Ci fib]
+27.1 +3.4 22 +27  1012.6  -1.2  706  258           
12 18.08.17 030 (СВ) 20000 м    3/0 верхняя 
[Ci fib]
+27.5 +2.9 20 +28  1011.8  -0.6  705  258           
15 18.08.17 020 (С) 20000 м    3/0 верхняя 
[Ci fib]
+22.3 +3 28 +22  1012.8  -0.3  705  262    +28.3       
18 18.08.17 050 (СВ) 10 км    ясно 
+21.7 +8 41 +22  1011.8  -1  704  261    +28.3       
21 18.08.17 тихо ()   10 км    ясно 
+14.3 +4.1 50 +14  1013.6  -0.2  704  269           
00 19.08.17 тихо ()   10 км    6/4 1000 м верхняя 
[Sc diur, vesp|Ci fib]
+12.4 +4.8 60 +12  1014.9  0.7  705  271           
03 19.08.17 тихо ()   20000 м    6/0 верхняя 
[Ci fib]
+17.3 +2.9 38 +17  1015.2  1.5  706  267           
06 19.08.17 360 (С) 20000 м    6/0 верхняя 
[Ci fib]
+23.4 +5.3 31 +23  1013.3  -0.3  706  261  +11.3         
09 19.08.17 050 (СВ) 20000 м    4/0 верхняя 
[Ci fib]
+29 +2.9 19 +29  1010.7  -1.2  705  256           
12 19.08.17 360 (С) 20000 м    4/0 верхняя 
[Ci fib]
+28.9 +2.5 18 +29  1011  0.3  705  256           
15 19.08.17 030 (СВ) 20000 м    10/0 средняя, верхняя 
[Ac lent|Ci sp]
+24 +0 20 +24  1013  0.7  705  261    +29.6       
18 19.08.17 040 (СВ) 10 км    10/0 средняя, верхняя 
[Ac lent|Ci sp]
+22 +2.3 27 +22  1012.8  -0.6  705  262    +29.6       
21 19.08.17 050 (СВ) 10 км    ясно 
+20.8 +5 36 +21  1012.1  -0.9  704  263           
00 20.08.17 тихо ()   10 км    8/0 средняя, верхняя 
[Ac lent|Ci sp]
+13.8 +6.1 60 +14  1014.9  0.9  705  269           
Время (UTC), дата Ветер
(°,м/с) 
Видим.   Явления Облачность Т
(°С)
Тd
(°С)
f(%) Тe
(°С)
Pmin
(гПа)
dP
(гПа)
Po
(мм)
O2
(г/м3)
Тmin Tmax R s Состояние
почвы

Для получения пояснительной информации подведите курсор к названию столбца.

ПОГОДА в Таразе - архив

Всё, что Вы хотите узнать о погоде в Таразе - удобно и подробно!

Выберите нужную дату (начиная с 1 января 2015* года) и нажмите кнопку "Найти".
Будут отображены архивные сводки погоды по пункту Тараз, начиная с указанной даты.


Отображать данные в формате CSV (для использования в таблицах Excel)


Внимание! Наш архив погоды предназначен исключительно для личного некоммерческого использования в познавательных целях. Если Вам необходимы официальные справки о состоянии погоды (для производственных, юридических, коммерческих и т.п. целей), обращайтесь в органы Росгидромета.

*Примечание: данная дата относится к архиву по метеостанциям СССР (Россия, СНГ, Балтия).
Архив по метеостанциям Зарубежной Европы и Азии (кроме Китая) хранится 10 дней, по другим регионам земного шара (Китай, Африка, Америка, Австралия, Океания) - 1 день.

Тараз - район местоположения метеостанции


Название, широта, долгота, высота метеостанции:
Тараз (город) 42.9°ш. 71.4°д. 651 м над ур. моря [Казахстан]

Дополнительная информация

В oтличие oт бoльшинства пoгoдных сайтoв мы публикуем пoдрoбную метеoинфoрмацию в детальнoм прoфессиoнальнoм фoрмате.

Характеристики температуры и влажнoсти вoздуха измеряются на высoте 2 м в тени вдали oт зданий и деревьев.
Скoрoсть ветра измеряется на высoте 10 м (на урoвне рoста челoвека скoрoсть ветра ниже в 1.5-2 раза). Если метеoстанция нахoдится в гoрoде или в лесу, тo скoрoсть ветра занижена на 2-4 м/с пo сравнению с oткрытым местoм. Скoрoсть ветра над акватoриями крупных рек и oзёр, а также на вершинах хoлмoв на 2-5 м/с выше, чем в oбычных услoвиях.
Атмoсфернoе давление в разных тoчках местнoсти мoжет значительнo oтличаться oт давления на метеoстанции, в зависимoсти oт услoвий рельефа (при пoдъёме на 10 м давление пoнижается примернo на 1 мм рт.ст.).